| time (UTC) | temp F | wind direction | speed knots | gust knots | rain 1hr in | rain 24hr in | rain mn in | humidity % | barometer mb |
| 20260510191033 | 86 | 180 | 8.7 | 12.2 | 0.00 | 0.00 | 0.00 | 68 | 1012.2 |
| 20260510190034 | 86 | 167 | 7.8 | 10.4 | 0.00 | 0.00 | 0.00 | 69 | 1012.1 |
| 20260510185543 | 86 | 151 | 7.8 | 10.4 | 0.00 | 0.00 | 0.00 | 70 | 1012.0 |
| 20260510184608 | 85 | 161 | 7.0 | 12.2 | 0.00 | 0.00 | 0.00 | 69 | 1012.2 |
| 20260510184050 | 85 | 177 | 8.7 | 12.2 | 0.00 | 0.00 | 0.00 | 70 | 1012.1 |
| 20260510183119 | 85 | 208 | 4.3 | 10.4 | 0.00 | 0.00 | 0.00 | 71 | 1012.3 |
| 20260510182521 | 85 | 144 | 5.2 | 11.3 | 0.00 | 0.00 | 0.00 | 72 | 1012.4 |
| 20260510182031 | 85 | 155 | 7.0 | 13.0 | 0.00 | 0.00 | 0.00 | 72 | 1012.6 |
| 20260510181637 | 84 | 187 | 10.4 | 13.0 | 0.00 | 0.00 | 0.00 | 72 | 1012.5 |
| 20260510181026 | 84 | 147 | 7.8 | 12.2 | 0.00 | 0.00 | 0.00 | 72 | 1012.6 |
| 20260510180636 | 84 | 184 | 7.8 | 12.2 | 0.00 | 0.00 | 0.00 | 73 | 1012.6 |
| 20260510180034 | 84 | 165 | 7.0 | 11.3 | 0.00 | 0.00 | 0.00 | 73 | 1012.7 |
| 20260510175547 | 84 | 132 | 5.2 | 13.0 | 0.00 | 0.00 | 0.00 | 75 | 1012.9 |
| 20260510174548 | 84 | 143 | 8.7 | 11.3 | 0.00 | 0.00 | 0.00 | 74 | 1012.9 |
| 20260510174058 | 83 | 139 | 7.8 | 11.3 | 0.00 | 0.00 | 0.00 | 74 | 1012.9 |
| 20260510173114 | 83 | 144 | 6.1 | 14.8 | 0.00 | 0.00 | 0.00 | 75 | 1013.1 |
| 20260510172556 | 83 | 128 | 7.0 | 14.8 | 0.00 | 0.00 | 0.00 | 75 | 1013.1 |
| 20260510172107 | 83 | 163 | 7.8 | 13.0 | 0.00 | 0.00 | 0.00 | 75 | 1013.1 |
| 20260510171526 | 83 | 174 | 6.1 | 11.3 | 0.00 | 0.00 | 0.00 | 76 | 1013.1 |
| 20260510171138 | 83 | 137 | 6.1 | 11.3 | 0.00 | 0.00 | 0.00 | 76 | 1013.1 |
| 20260510170627 | 83 | 145 | 6.1 | 13.0 | 0.00 | 0.00 | 0.00 | 76 | 1013.2 |
| 20260510170024 | 82 | 172 | 6.1 | 11.3 | 0.00 | 0.00 | 0.00 | 77 | 1013.3 |
| 20260510165534 | 82 | 162 | 7.0 | 11.3 | 0.00 | 0.00 | 0.00 | 76 | 1013.4 |
| 20260510164556 | 82 | 137 | 5.2 | 11.3 | 0.00 | 0.00 | 0.00 | 77 | 1013.7 |
| 20260510164106 | 82 | 151 | 7.0 | 12.2 | 0.00 | 0.00 | 0.00 | 78 | 1013.7 |
| 20260510163027 | 80 | 160 | 9.6 | 13.0 | 0.00 | 0.00 | 0.00 | 80 | 1013.6 |
| 20260510162529 | 81 | 145 | 7.8 | 13.0 | 0.00 | 0.00 | 0.00 | 79 | 1013.6 |
| 20260510161551 | 80 | 148 | 5.2 | 9.6 | 0.00 | 0.00 | 0.00 | 81 | 1013.6 |
| 20260510161056 | 80 | 175 | 6.1 | 11.3 | 0.00 | 0.00 | 0.00 | 82 | 1013.7 |
| 20260510160557 | 80 | 169 | 7.8 | 12.2 | 0.00 | 0.00 | 0.00 | 81 | 1013.8 |
| 20260510160027 | 80 | 115 | 5.2 | 9.6 | 0.00 | 0.00 | 0.00 | 82 | 1013.9 |
| 20260510155539 | 80 | 150 | 4.3 | 9.6 | 0.00 | 0.00 | 0.00 | 82 | 1013.8 |
| 20260510154559 | 79 | 123 | 3.5 | 10.4 | 0.00 | 0.00 | 0.00 | 84 | 1014.1 |
| 20260510154104 | 79 | 146 | 7.0 | 10.4 | 0.00 | 0.00 | 0.00 | 82 | 1014.1 |
| 20260510153110 | 78 | 117 | 7.0 | 11.3 | 0.00 | 0.00 | 0.00 | 83 | 1014.0 |
| 20260510152614 | 78 | 140 | 5.2 | 9.6 | 0.00 | 0.00 | 0.00 | 83 | 1014.0 |
| 20260510151611 | 78 | 141 | 6.1 | 8.7 | 0.00 | 0.00 | 0.00 | 84 | 1013.9 |
| 20260510151025 | 78 | 134 | 4.3 | 8.7 | 0.00 | 0.00 | 0.00 | 85 | 1014.0 |
| 20260510150046 | 77 | 101 | 3.5 | 7.8 | 0.00 | 0.00 | 0.00 | 86 | 1014.0 |
| 20260510145555 | 77 | 82 | 4.3 | 9.6 | 0.00 | 0.00 | 0.00 | 87 | 1014.0 |
| 20260510145054 | 76 | 98 | 7.0 | 9.6 | 0.00 | 0.00 | 0.00 | 86 | 1014.0 |
| 20260510144525 | 76 | 94 | 7.0 | 9.6 | 0.00 | 0.00 | 0.00 | 87 | 1014.1 |
| 20260510144028 | 76 | 92 | 7.0 | 10.4 | 0.00 | 0.00 | 0.00 | 87 | 1014.1 |
| 20260510143053 | 76 | 89 | 5.2 | 10.4 | 0.00 | 0.00 | 0.00 | 87 | 1014.1 |
| 20260510142554 | 76 | 109 | 6.1 | 9.6 | 0.00 | 0.00 | 0.00 | 88 | 1014.0 |
| 20260510141619 | 75 | 84 | 7.8 | 9.6 | 0.00 | 0.00 | 0.00 | 88 | 1014.0 |
| 20260510141028 | 75 | 79 | 6.1 | 8.7 | 0.00 | 0.00 | 0.00 | 88 | 1014.0 |
| 20260510140048 | 75 | 98 | 5.2 | 8.7 | 0.00 | 0.00 | 0.00 | 90 | 1014.0 |
| 20260510135559 | 74 | 105 | 5.2 | 7.8 | 0.00 | 0.00 | 0.00 | 90 | 1014.1 |
| 20260510134601 | 74 | 90 | 2.6 | 7.8 | 0.00 | 0.00 | 0.00 | 91 | 1014.0 |
| 20260510134111 | 74 | 104 | 5.2 | 7.8 | 0.00 | 0.00 | 0.00 | 91 | 1013.9 |
| 20260510133553 | 74 | 92 | 3.5 | 5.2 | 0.00 | 0.00 | 0.00 | 91 | 1013.7 |
| 20260510133021 | 74 | 128 | 2.6 | 7.0 | 0.00 | 0.00 | 0.00 | 92 | 1013.5 |
| 20260510132524 | 74 | 107 | 4.3 | 7.8 | 0.00 | 0.00 | 0.00 | 92 | 1013.3 |
| 20260510131550 | 73 | 159 | 5.2 | 8.7 | 0.00 | 0.00 | 0.00 | 93 | 1013.1 |
| 20260510131053 | 72 | 117 | 4.3 | 7.0 | 0.00 | 0.00 | 0.00 | 93 | 1013.0 |
| 20260510130054 | 72 | 143 | 5.2 | 7.8 | 0.00 | 0.00 | 0.00 | 93 | 1012.8 |
| 20260510125604 | 72 | 148 | 4.3 | 7.0 | 0.00 | 0.00 | 0.00 | 93 | 1012.7 |
| 20260510124602 | 71 | 136 | 7.0 | 8.7 | 0.00 | 0.00 | 0.00 | 93 | 1012.6 |
| 20260510124052 | 71 | 144 | 6.1 | 8.7 | 0.00 | 0.00 | 0.00 | 93 | 1012.5 |
| 20260510123058 | 71 | 140 | 4.3 | 7.8 | 0.00 | 0.00 | 0.00 | 93 | 1012.4 |
| 20260510122607 | 71 | 142 | 2.6 | 7.0 | 0.00 | 0.00 | 0.00 | 93 | 1012.2 |
| 20260510122111 | 71 | 142 | 3.5 | 7.8 | 0.00 | 0.00 | 0.00 | 93 | 1012.1 |
| 20260510121537 | 70 | 141 | 5.2 | 8.7 | 0.00 | 0.00 | 0.00 | 93 | 1012.0 |
| 20260510121040 | 70 | 148 | 5.2 | 8.7 | 0.00 | 0.00 | 0.00 | 93 | 1011.9 |
| 20260510120043 | 70 | 144 | 2.6 | 6.1 | 0.00 | 0.00 | 0.00 | 93 | 1011.7 |
| 20260510115552 | 70 | 150 | 3.5 | 7.8 | 0.00 | 0.00 | 0.00 | 93 | 1011.7 |
| 20260510115055 | 70 | 145 | 4.3 | 7.0 | 0.00 | 0.00 | 0.00 | 93 | 1011.6 |
| 20260510114525 | 70 | 158 | 4.3 | 6.1 | 0.00 | 0.00 | 0.00 | 92 | 1011.5 |
| 20260510114033 | 70 | 171 | 0.0 | 3.5 | 0.00 | 0.00 | 0.00 | 92 | 1011.7 |
| 20260510113054 | 69 | 174 | 0.0 | 0.0 | 0.00 | 0.00 | 0.00 | 92 | 1011.6 |
| 20260510112557 | 69 | 174 | 0.0 | 0.0 | 0.00 | 0.00 | 0.00 | 92 | 1011.5 |
| 20260510112106 | 69 | 175 | 0.0 | 0.0 | 0.00 | 0.00 | 0.00 | 92 | 1011.4 |
| 20260510111025 | 69 | 178 | 0.0 | 2.6 | 0.00 | 0.00 | 0.00 | 92 | 1011.0 |
| 20260510110051 | 70 | 178 | 0.9 | 3.5 | 0.00 | 0.00 | 0.00 | 92 | 1010.7 |
| 20260510105601 | 70 | 178 | 1.7 | 5.2 | 0.00 | 0.00 | 0.00 | 92 | 1010.5 |
| 20260510105059 | 70 | 180 | 3.5 | 7.8 | 0.00 | 0.00 | 0.00 | 92 | 1010.4 |
| 20260510104528 | 70 | 183 | 5.2 | 7.8 | 0.00 | 0.00 | 0.00 | 92 | 1010.2 |
| 20260510104038 | 70 | 158 | 5.2 | 7.8 | 0.00 | 0.00 | 0.00 | 92 | 1010.1 |
| 20260510103059 | 70 | 178 | 3.5 | 6.1 | 0.00 | 0.00 | 0.00 | 92 | 1010.0 |
| 20260510102602 | 70 | 178 | 4.3 | 7.8 | 0.00 | 0.00 | 0.00 | 91 | 1010.0 |
| 20260510102113 | 70 | 165 | 4.3 | 7.8 | 0.00 | 0.00 | 0.00 | 92 | 1010.0 |
| 20260510101614 | 70 | 167 | 6.1 | 7.8 | 0.00 | 0.00 | 0.00 | 92 | 1010.0 |
| 20260510101027 | 70 | 169 | 5.2 | 7.0 | 0.00 | 0.00 | 0.00 | 91 | 1010.0 |
| 20260510100627 | 70 | 182 | 5.2 | 7.0 | 0.00 | 0.00 | 0.00 | 91 | 1009.8 |
| 20260510100038 | 70 | 183 | 4.3 | 7.0 | 0.00 | 0.00 | 0.00 | 91 | 1009.8 |
| 20260510095549 | 70 | 168 | 6.1 | 7.0 | 0.00 | 0.00 | 0.00 | 91 | 1009.8 |
| 20260510094539 | 71 | 180 | 6.1 | 10.4 | 0.00 | 0.00 | 0.00 | 91 | 1009.9 |
| 20260510094049 | 71 | 174 | 6.1 | 9.6 | 0.00 | 0.00 | 0.00 | 91 | 1009.9 |
| 20260510093049 | 71 | 171 | 7.0 | 9.6 | 0.00 | 0.00 | 0.00 | 91 | 1009.8 |
| 20260510092537 | 71 | 165 | 6.1 | 8.7 | 0.00 | 0.00 | 0.00 | 90 | 1009.8 |
| 20260510092038 | 71 | 165 | 5.2 | 8.7 | 0.00 | 0.00 | 0.00 | 90 | 1009.8 |
| 20260510091607 | 71 | 169 | 5.2 | 7.8 | 0.00 | 0.00 | 0.00 | 90 | 1009.8 |
| 20260510091111 | 71 | 180 | 4.3 | 7.0 | 0.00 | 0.00 | 0.00 | 90 | 1009.7 |
| 20260510090525 | 71 | 167 | 4.3 | 7.0 | 0.00 | 0.00 | 0.00 | 90 | 1009.8 |
| 20260510090025 | 71 | 160 | 5.2 | 8.7 | 0.00 | 0.00 | 0.00 | 89 | 1009.7 |
| 20260510085535 | 71 | 178 | 6.1 | 7.8 | 0.00 | 0.00 | 0.00 | 89 | 1009.7 |
| 20260510084556 | 71 | 176 | 3.5 | 6.1 | 0.00 | 0.00 | 0.00 | 89 | 1009.9 |
| 20260510084108 | 71 | 178 | 4.3 | 6.1 | 0.00 | 0.00 | 0.00 | 88 | 1009.9 |
| 20260510083109 | 71 | 172 | 4.3 | 6.1 | 0.00 | 0.00 | 0.00 | 88 | 1010.0 |
| 20260510082611 | 71 | 184 | 3.5 | 6.1 | 0.00 | 0.00 | 0.00 | 88 | 1010.0 |
| 20260510082121 | 71 | 169 | 4.3 | 7.0 | 0.00 | 0.00 | 0.00 | 88 | 1010.1 |
| 20260510081530 | 71 | 190 | 5.2 | 7.0 | 0.00 | 0.00 | 0.00 | 87 | 1010.0 |
| 20260510081109 | 71 | 177 | 4.3 | 6.1 | 0.00 | 0.00 | 0.00 | 87 | 1010.0 |
| 20260510080523 | 71 | 166 | 5.2 | 7.0 | 0.00 | 0.00 | 0.00 | 87 | 1010.1 |
| 20260510080026 | 71 | 172 | 4.3 | 5.2 | 0.00 | 0.00 | 0.00 | 87 | 1010.1 |
| 20260510075537 | 71 | 178 | 4.3 | 5.2 | 0.00 | 0.00 | 0.00 | 86 | 1010.0 |
| 20260510074557 | 72 | 175 | 5.2 | 8.7 | 0.00 | 0.00 | 0.00 | 86 | 1010.0 |
| 20260510074107 | 72 | 167 | 5.2 | 8.7 | 0.00 | 0.00 | 0.00 | 85 | 1010.0 |
| 20260510073611 | 72 | 181 | 5.2 | 9.6 | 0.00 | 0.00 | 0.00 | 85 | 1010.2 |
| 20260510073037 | 72 | 180 | 6.1 | 9.6 | 0.00 | 0.00 | 0.00 | 85 | 1010.2 |
| 20260510072540 | 72 | 168 | 7.0 | 8.7 | 0.00 | 0.00 | 0.00 | 85 | 1010.2 |
| 20260510072050 | 73 | 171 | 6.1 | 10.4 | 0.00 | 0.00 | 0.00 | 84 | 1010.2 |
| 20260510071522 | 73 | 156 | 7.0 | 10.4 | 0.00 | 0.00 | 0.00 | 84 | 1010.2 |
| 20260510071024 | 73 | 171 | 7.8 | 11.3 | 0.00 | 0.00 | 0.00 | 84 | 1010.2 |
| 20260510070637 | 73 | 184 | 7.8 | 11.3 | 0.00 | 0.00 | 0.00 | 84 | 1010.2 |
| 20260510070027 | 73 | 166 | 7.0 | 9.6 | 0.00 | 0.00 | 0.00 | 84 | 1010.2 |
| 20260510065537 | 73 | 150 | 7.0 | 9.6 | 0.00 | 0.00 | 0.00 | 84 | 1010.3 |
| 20260510065027 | 73 | 167 | 7.0 | 10.4 | 0.00 | 0.00 | 0.00 | 83 | 1010.2 |
| 20260510064547 | 72 | 161 | 7.8 | 10.4 | 0.00 | 0.00 | 0.00 | 83 | 1010.2 |
| 20260510064033 | 72 | 167 | 7.0 | 10.4 | 0.00 | 0.00 | 0.00 | 83 | 1010.2 |
| 20260510063521 | 72 | 152 | 6.1 | 9.6 | 0.00 | 0.00 | 0.00 | 83 | 1010.3 |
| 20260510063101 | 72 | 176 | 7.0 | 8.7 | 0.00 | 0.00 | 0.00 | 83 | 1010.2 |
| 20260510062522 | 72 | 171 | 6.1 | 8.7 | 0.00 | 0.00 | 0.00 | 83 | 1010.3 |
| 20260510062101 | 72 | 159 | 6.1 | 8.7 | 0.00 | 0.00 | 0.00 | 83 | 1010.4 |
| 20260510061551 | 72 | 160 | 7.0 | 8.7 | 0.00 | 0.00 | 0.00 | 82 | 1010.4 |
| 20260510061036 | 73 | 154 | 6.1 | 9.6 | 0.00 | 0.00 | 0.00 | 82 | 1010.4 |
| 20260510060523 | 73 | 144 | 7.0 | 8.7 | 0.00 | 0.00 | 0.00 | 81 | 1010.4 |
| 20260510060022 | 73 | 163 | 7.0 | 9.6 | 0.00 | 0.00 | 0.00 | 81 | 1010.3 |
| 20260510055532 | 73 | 155 | 7.0 | 9.6 | 0.00 | 0.00 | 0.00 | 81 | 1010.3 |
| 20260510055041 | 73 | 146 | 7.0 | 9.6 | 0.00 | 0.00 | 0.00 | 81 | 1010.3 |
| 20260510054553 | 73 | 148 | 7.0 | 9.6 | 0.00 | 0.00 | 0.00 | 81 | 1010.4 |
| 20260510054022 | 73 | 160 | 7.0 | 9.6 | 0.00 | 0.00 | 0.00 | 81 | 1010.3 |
| 20260510053551 | 73 | 146 | 7.0 | 9.6 | 0.00 | 0.00 | 0.00 | 80 | 1010.4 |
| 20260510053031 | 73 | 140 | 6.1 | 8.7 | 0.00 | 0.00 | 0.00 | 80 | 1010.4 |
| 20260510052532 | 73 | 144 | 6.1 | 8.7 | 0.00 | 0.00 | 0.00 | 80 | 1010.6 |
| 20260510052022 | 73 | 150 | 5.2 | 8.7 | 0.00 | 0.00 | 0.00 | 80 | 1010.6 |
| 20260510051541 | 73 | 130 | 5.2 | 8.7 | 0.00 | 0.00 | 0.00 | 80 | 1010.6 |
| 20260510051024 | 73 | 143 | 5.2 | 8.7 | 0.00 | 0.00 | 0.00 | 79 | 1010.4 |
| 20260510050531 | 74 | 147 | 7.0 | 8.7 | 0.00 | 0.00 | 0.00 | 79 | 1010.2 |
| 20260510050031 | 74 | 149 | 5.2 | 7.8 | 0.00 | 0.00 | 0.00 | 79 | 1010.3 |
| 20260510045534 | 74 | 134 | 4.3 | 8.7 | 0.00 | 0.00 | 0.00 | 79 | 1010.3 |
| 20260510044602 | 74 | 151 | 5.2 | 7.8 | 0.00 | 0.00 | 0.00 | 79 | 1010.3 |
| 20260510044048 | 74 | 142 | 4.3 | 7.8 | 0.00 | 0.00 | 0.00 | 79 | 1010.3 |
| 20260510043027 | 74 | 135 | 5.2 | 10.4 | 0.00 | 0.00 | 0.00 | 79 | 1010.5 |
| 20260510042639 | 74 | 113 | 6.1 | 11.3 | 0.00 | 0.00 | 0.00 | 79 | 1010.5 |
| 20260510042119 | 74 | 134 | 5.2 | 11.3 | 0.00 | 0.00 | 0.00 | 80 | 1010.4 |
| 20260510041546 | 74 | 141 | 7.0 | 9.6 | 0.00 | 0.00 | 0.00 | 82 | 1010.4 |
| 20260510040631 | 74 | 126 | 2.6 | 6.1 | 0.00 | 0.00 | 0.00 | 82 | 1010.2 |
| 20260510040028 | 74 | 138 | 3.5 | 4.3 | 0.00 | 0.00 | 0.00 | 82 | 1010.0 |
| 20260510035539 | 74 | 138 | 2.6 | 6.1 | 0.00 | 0.00 | 0.00 | 82 | 1009.9 |
| 20260510034559 | 74 | 140 | 5.2 | 7.0 | 0.00 | 0.00 | 0.00 | 82 | 1010.0 |
| 20260510034052 | 75 | 128 | 3.5 | 6.1 | 0.00 | 0.00 | 0.00 | 82 | 1009.9 |
| 20260510033048 | 75 | 136 | 4.3 | 7.8 | 0.00 | 0.00 | 0.00 | 82 | 1009.8 |
| 20260510032552 | 75 | 148 | 5.2 | 7.8 | 0.00 | 0.00 | 0.00 | 81 | 1009.8 |
| 20260510031558 | 75 | 144 | 5.2 | 7.0 | 0.00 | 0.00 | 0.00 | 81 | 1009.7 |
| 20260510031101 | 76 | 141 | 3.5 | 6.1 | 0.00 | 0.00 | 0.00 | 80 | 1009.5 |
| 20260510030612 | 76 | 134 | 2.6 | 6.1 | 0.00 | 0.00 | 0.00 | 79 | 1009.4 |
| 20260510030029 | 76 | 132 | 2.6 | 7.8 | 0.00 | 0.00 | 0.00 | 79 | 1009.2 |
| 20260510025539 | 76 | 134 | 3.5 | 7.8 | 0.00 | 0.00 | 0.00 | 79 | 1009.2 |
| 20260510024604 | 77 | 207 | 2.6 | 3.5 | 0.00 | 0.00 | 0.00 | 77 | 1009.1 |
| 20260510024051 | 77 | 207 | 2.6 | 3.5 | 0.00 | 0.00 | 0.00 | 76 | 1009.0 |
| 20260510023550 | 78 | 209 | 1.7 | 3.5 | 0.00 | 0.00 | 0.00 | 75 | 1009.1 |
| 20260510023020 | 78 | 209 | 2.6 | 3.5 | 0.00 | 0.00 | 0.00 | 74 | 1008.9 |
| 20260510022631 | 78 | 210 | 2.6 | 3.5 | 0.00 | 0.00 | 0.00 | 74 | 1008.8 |
| 20260510021607 | 78 | 211 | 1.7 | 2.6 | 0.00 | 0.00 | 0.00 | 74 | 1008.7 |
| 20260510021110 | 79 | 211 | 1.7 | 2.6 | 0.00 | 0.00 | 0.00 | 72 | 1008.7 |
| 20260510020620 | 79 | 211 | 1.7 | 2.6 | 0.00 | 0.00 | 0.00 | 72 | 1008.8 |
| 20260510020039 | 79 | 211 | 1.7 | 2.6 | 0.00 | 0.00 | 0.00 | 71 | 1008.6 |
| 20260510015549 | 79 | 211 | 1.7 | 3.5 | 0.00 | 0.00 | 0.00 | 71 | 1008.6 |
| 20260510014615 | 80 | 247 | 1.7 | 3.5 | 0.00 | 0.00 | 0.00 | 70 | 1008.5 |
| 20260510014027 | 80 | 248 | 0.9 | 3.5 | 0.00 | 0.00 | 0.00 | 70 | 1008.4 |
| 20260510013631 | 80 | 248 | 0.0 | 0.0 | 0.00 | 0.00 | 0.00 | 69 | 1008.3 |
| 20260510013040 | 81 | 248 | 0.0 | 0.0 | 0.00 | 0.00 | 0.00 | 68 | 1008.2 |
| 20260510012544 | 81 | 248 | 0.0 | 0.0 | 0.00 | 0.00 | 0.00 | 67 | 1008.3 |
| 20260510011605 | 81 | 248 | 0.0 | 2.6 | 0.00 | 0.00 | 0.00 | 67 | 1008.0 |
| 20260510011056 | 81 | 248 | 1.7 | 2.6 | 0.00 | 0.00 | 0.00 | 68 | 1008.0 |
| 20260510010057 | 82 | 190 | 2.6 | 3.5 | 0.00 | 0.00 | 0.00 | 67 | 1007.9 |
| 20260510005600 | 82 | 190 | 1.7 | 3.5 | 0.00 | 0.00 | 0.00 | 68 | 1007.8 |
| 20260510005110 | 82 | 190 | 2.6 | 4.3 | 0.00 | 0.00 | 0.00 | 67 | 1007.9 |
| 20260510004537 | 83 | 190 | 2.6 | 4.3 | 0.00 | 0.00 | 0.00 | 66 | 1007.8 |
| 20260510004044 | 83 | 185 | 1.7 | 2.6 | 0.00 | 0.00 | 0.00 | 65 | 1007.8 |
| 20260510003108 | 83 | 213 | 0.0 | 0.0 | 0.00 | 0.00 | 0.00 | 64 | 1007.6 |
| 20260510002550 | 83 | 213 | 0.0 | 0.0 | 0.00 | 0.00 | 0.00 | 65 | 1007.5 |
| 20260510001611 | 83 | 213 | 0.9 | 3.5 | 0.00 | 0.00 | 0.00 | 63 | 1007.4 |
| 20260510001101 | 83 | 213 | 1.7 | 3.5 | 0.00 | 0.00 | 0.00 | 64 | 1007.3 |
| 20260510000613 | 82 | 213 | 1.7 | 3.5 | 0.00 | 0.00 | 0.00 | 64 | 1007.3 |
| 20260510000038 | 82 | 214 | 1.7 | 7.8 | 0.00 | 0.00 | 0.00 | 64 | 1007.3 |
| 20260509235528 | 81 | 214 | 3.5 | 9.6 | 0.00 | 0.00 | 0.00 | 65 | 1007.4 |
| 20260509234550 | 80 | 196 | 7.8 | 9.6 | 0.00 | 0.00 | 0.00 | 67 | 1007.7 |
| 20260509234103 | 79 | 196 | 7.0 | 10.4 | 0.00 | 0.00 | 0.00 | 68 | 1007.7 |
| 20260509233606 | 78 | 234 | 7.8 | 11.3 | 0.00 | 0.00 | 0.00 | 68 | 1007.7 |
| 20260509233034 | 78 | 207 | 8.7 | 17.4 | 0.00 | 0.00 | 0.00 | 67 | 1008.0 |
| 20260509232536 | 79 | 207 | 10.4 | 17.4 | 0.00 | 0.00 | 0.00 | 65 | 1007.9 |
| 20260509231543 | 81 | 223 | 10.4 | 16.5 | 0.00 | 0.00 | 0.00 | 59 | 1007.9 |
| 20260509231050 | 83 | 211 | 8.7 | 13.0 | 0.00 | 0.00 | 0.00 | 60 | 1008.0 |
| 20260509230117 | 87 | 22 | 0.9 | 5.2 | 0.00 | 0.00 | 0.00 | 67 | 1007.4 |
| 20260509225600 | 87 | 28 | 0.9 | 2.6 | 0.00 | 0.00 | 0.00 | 68 | 1007.3 |
| 20260509225111 | 88 | 27 | 1.7 | 3.5 | 0.00 | 0.00 | 0.00 | 67 | 1007.3 |
| 20260509224527 | 88 | 26 | 1.7 | 3.5 | 0.00 | 0.00 | 0.00 | 66 | 1007.1 |
| 20260509224040 | 88 | 27 | 2.6 | 5.2 | 0.00 | 0.00 | 0.00 | 66 | 1007.1 |
| 20260509223040 | 89 | 9 | 2.6 | 4.3 | 0.00 | 0.00 | 0.00 | 64 | 1006.9 |
| 20260509222550 | 89 | 333 | 2.6 | 4.3 | 0.00 | 0.00 | 0.00 | 64 | 1006.9 |
| 20260509222053 | 89 | 313 | 2.6 | 4.3 | 0.00 | 0.00 | 0.00 | 62 | 1006.8 |
| 20260509221523 | 89 | 315 | 2.6 | 7.0 | 0.00 | 0.00 | 0.00 | 61 | 1006.7 |
| 20260509221024 | 89 | 319 | 4.3 | 7.0 | 0.00 | 0.00 | 0.00 | 62 | 1006.6 |
| 20260509220050 | 89 | 61 | 2.6 | 5.2 | 0.00 | 0.00 | 0.00 | 64 | 1006.5 |
| 20260509215555 | 89 | 65 | 3.5 | 5.2 | 0.00 | 0.00 | 0.00 | 64 | 1006.6 |
| 20260509214616 | 90 | 22 | 3.5 | 5.2 | 0.00 | 0.00 | 0.00 | 64 | 1006.9 |
| 20260509214027 | 90 | 26 | 3.5 | 11.3 | 0.00 | 0.00 | 0.00 | 63 | 1006.9 |
| 20260509213531 | 90 | 68 | 5.2 | 11.3 | 0.00 | 0.00 | 0.00 | 62 | 1006.9 |
| 20260509213138 | 89 | 337 | 2.6 | 9.6 | 0.00 | 0.00 | 0.00 | 62 | 1006.9 |
| 20260509212630 | 89 | 283 | 1.7 | 7.0 | 0.00 | 0.00 | 0.00 | 61 | 1007.1 |
| 20260509212111 | 89 | 284 | 4.3 | 7.0 | 0.00 | 0.00 | 0.00 | 60 | 1007.3 |
| 20260509211537 | 89 | 258 | 2.6 | 7.0 | 0.00 | 0.00 | 0.00 | 61 | 1007.3 |
| 20260509211040 | 89 | 310 | 2.6 | 7.0 | 0.00 | 0.00 | 0.00 | 61 | 1007.4 |
| 20260509210108 | 88 | 265 | 4.3 | 7.8 | 0.00 | 0.00 | 0.00 | 61 | 1007.4 |
| 20260509205552 | 88 | 258 | 5.2 | 7.0 | 0.00 | 0.00 | 0.00 | 61 | 1007.4 |
| 20260509205103 | 88 | 333 | 2.6 | 7.8 | 0.00 | 0.00 | 0.00 | 61 | 1007.3 |
| 20260509204521 | 88 | 325 | 3.5 | 9.6 | 0.00 | 0.00 | 0.00 | 62 | 1007.4 |
| 20260509204036 | 88 | 287 | 3.5 | 9.6 | 0.00 | 0.00 | 0.00 | 62 | 1007.5 |
| 20260509203100 | 88 | 288 | 3.5 | 7.8 | 0.00 | 0.00 | 0.00 | 63 | 1007.7 |
| 20260509202548 | 88 | 355 | 4.3 | 9.6 | 0.00 | 0.00 | 0.00 | 62 | 1007.8 |
| 20260509201546 | 87 | 319 | 6.1 | 9.6 | 0.00 | 0.00 | 0.00 | 68 | 1008.0 |
| 20260509201031 | 87 | 180 | 1.7 | 7.0 | 0.00 | 0.00 | 0.00 | 68 | 1007.9 |
| 20260509200030 | 87 | 272 | 3.5 | 6.1 | 0.00 | 0.00 | 0.00 | 67 | 1008.0 |
| 20260509195543 | 87 | 334 | 3.5 | 5.2 | 0.00 | 0.00 | 0.00 | 68 | 1008.1 |
| 20260509194608 | 86 | 20 | 1.7 | 7.0 | 0.00 | 0.00 | 0.00 | 69 | 1008.1 |
| 20260509194118 | 87 | 5 | 2.6 | 7.0 | 0.00 | 0.00 | 0.00 | 68 | 1008.1 |
| 20260509193521 | 87 | 320 | 2.6 | 4.3 | 0.00 | 0.00 | 0.00 | 69 | 1008.2 |
| 20260509193034 | 86 | 355 | 2.6 | 7.0 | 0.00 | 0.00 | 0.00 | 71 | 1008.3 |
| 20260509192539 | 86 | 252 | 3.5 | 7.0 | 0.00 | 0.00 | 0.00 | 69 | 1008.4 |
| 20260509191540 | 86 | 9 | 2.6 | 7.0 | 0.00 | 0.00 | 0.00 | 72 | 1008.4 |